This is the latest recevied weather packets stored in our database for station/object K9ZOG. If no packets are shown the sender has not sent any weather packets the latest 1 day(s).
| Time | Temp. | Humidity | Pressure | Rain* | Wind** | Luminosity | Snow |
|---|---|---|---|---|---|---|---|
| 1778010552 | 11.67° C | 43% | 1009.4 hPa | 0 mm | 0.45 m/s, 243° | 360 W/m² | - |
| 1778010252 | 11.67° C | 42% | 1009.3 hPa | 0 mm | 1.34 m/s, 182° | 365 W/m² | - |
| 1778009953 | 11.67° C | 43% | 1009.3 hPa | 0 mm | 0.45 m/s, 199° | 399 W/m² | - |
| 1778009652 | 11.67° C | 41% | 1009.3 hPa | 0 mm | 0.45 m/s, 187° | 347 W/m² | - |
| 1778009353 | 11.67° C | 42% | 1009.2 hPa | 0 mm | 0.89 m/s, 337° | 333 W/m² | - |
| 1778009052 | 11.67° C | 41% | 1009.2 hPa | 0 mm | 1.34 m/s, 338° | 365 W/m² | - |
| 1778008755 | 12.22° C | 41% | 1009.2 hPa | 0 mm | 0.89 m/s, 328° | 406 W/m² | - |
| 1778008453 | 12.22° C | 41% | 1009.4 hPa | 0 mm | 0.89 m/s, 257° | 541 W/m² | - |
| 1778008153 | 12.22° C | 41% | 1009.3 hPa | 0 mm | 0.89 m/s, 193° | 543 W/m² | - |
| 1778007853 | 11.67° C | 41% | 1009.2 hPa | 0 mm | 0.89 m/s, 190° | 562 W/m² | - |
| 1778007553 | 11.67° C | 44% | 1009.1 hPa | 0 mm | 0.89 m/s, 242° | 703 W/m² | - |
| 1778007252 | 11.67° C | 44% | 1009.1 hPa | 0 mm | 1.34 m/s, 218° | 486 W/m² | - |
| 1778006953 | 11.67° C | 43% | 1008.9 hPa | 0 mm | 1.34 m/s, 7° | 566 W/m² | - |
| 1778006654 | 11.67° C | 43% | 1008.8 hPa | 0 mm | 0.89 m/s, 205° | 439 W/m² | - |
| 1778006352 | 11.67° C | 41% | 1008.7 hPa | 0 mm | 1.34 m/s, 185° | 526 W/m² | - |
| 1778006053 | 11.67° C | 43% | 1008.8 hPa | 0 mm | 0.89 m/s, 331° | 679 W/m² | - |
| 1778005754 | 11.67° C | 43% | 1008.8 hPa | 0 mm | 0.89 m/s, 196° | 454 W/m² | - |
| 1778005454 | 11.67° C | 43% | 1008.8 hPa | 0 mm | 1.34 m/s, 188° | 503 W/m² | - |
| 1778005153 | 11.67° C | 44% | 1008.8 hPa | 0 mm | 0.89 m/s, 196° | 467 W/m² | - |
| 1778004853 | 11.67° C | 43% | 1008.7 hPa | 0 mm | 0 m/s | 422 W/m² | - |
| 1778004552 | 11.67° C | 43% | 1008.5 hPa | 0 mm | 1.34 m/s, 312° | 510 W/m² | - |
| 1778004252 | 11.11° C | 42% | 1008.6 hPa | 0 mm | 0.45 m/s, 163° | 505 W/m² | - |
| 1778003955 | 11.11° C | 42% | 1008.7 hPa | 0 mm | 1.79 m/s, 339° | 443 W/m² | - |
| 1778003652 | 11.67° C | 43% | 1008.9 hPa | 0 mm | 0.89 m/s, 277° | 423 W/m² | - |
| 1778003353 | 11.67° C | 42% | 1009 hPa | 0 mm | 0.89 m/s, 202° | 531 W/m² | - |
* Rain latest hour (hover to see other rain measurements)
** Current wind speed in m/s (hover to see current wind gust speed)